N5ZPR Weather Reports


Display with metric or nautical units.
time (UTC)temp
F
wind
direction
speed
MPH
gust
MPH
rain 1hr
in
rain 24hr
in
rain mn
in
humidity
%
barometer
mb
20260902073003 84 0 1.0 3.0 0.00 0.00 0.00 63 1013.1
20260902072003 85 0 0.0 3.0 0.00 0.00 0.00 62 1013.1
20260902071003 85 0 1.0 5.0 0.00 0.00 0.00 61 1013.1
20260902065004 85 0 2.0 6.0 0.00 0.00 0.00 62 1013.0
20260902064003 85 0 2.0 7.0 0.00 0.00 0.00 62 1013.0
20260902063004 85 0 2.0 5.0 0.00 0.00 0.00 62 1013.0
20260902062003 85 0 1.0 5.0 0.00 0.00 0.00 62 1013.0
20260902061003 85 0 2.0 5.0 0.00 0.00 0.00 62 1013.0
20260902060003 85 0 1.0 5.0 0.00 0.00 0.00 62 1012.8
20260902054004 85 0 2.0 7.0 0.00 0.00 0.00 61 1012.7
20260902052004 86 0 1.0 5.0 0.00 0.00 0.00 60 1012.6
20260902051003 86 0 2.0 5.0 0.00 0.00 0.00 59 1012.2
20260902045003 87 127 2.0 7.0 0.00 0.00 0.00 58 1012.2
20260902044004 87 154 2.0 7.0 0.00 0.00 0.00 56 1012.2
20260902043004 88 142 2.0 9.0 0.00 0.00 0.00 56 1012.2
20260902042003 88 114 4.0 12.0 0.00 0.00 0.00 55 1012.2
20260902041003 88 110 7.0 12.0 0.00 0.00 0.00 54 1012.2
20260902034003 89 111 0.0 1.0 0.00 0.00 0.00 52 1012.2
20260902032003 90 111 0.0 2.0 0.00 0.00 0.00 51 1012.2
20260902031004 91 111 1.0 3.0 0.00 0.00 0.00 50 1011.2
20260902030004 91 115 1.0 3.0 0.00 0.00 0.00 49 1011.2
20260902025004 91 119 1.0 3.0 0.00 0.00 0.00 49 1011.2
20260902023003 93 179 2.0 3.0 0.00 0.00 0.00 47 1011.2
20260902022004 92 169 0.0 1.0 0.00 0.00 0.00 47 1011.2
20260902021004 93 169 0.0 3.0 0.00 0.00 0.00 46 1010.7
20260902020003 92 118 1.0 3.0 0.00 0.00 0.00 46 1010.7
20260902015004 93 120 0.0 5.0 0.00 0.00 0.00 45 1010.7
20260902013003 94 125 1.0 5.0 0.00 0.00 0.00 44 1010.7
20260902012004 94 120 3.0 6.0 0.00 0.00 0.00 43 1010.7
20260902011003 94 103 1.0 5.0 0.00 0.00 0.00 43 1010.6
20260902005003 95 115 2.0 5.0 0.00 0.00 0.00 42 1010.6
20260902004004 96 154 2.0 7.0 0.00 0.00 0.00 42 1010.6
20260902002004 96 133 2.0 7.0 0.00 0.00 0.00 41 1010.8
20260902001003 97 142 2.0 9.0 0.00 0.00 0.00 41 1010.8
20260901235003 98 100 2.0 5.0 0.00 0.00 0.00 39 1010.9
20260901234004 98 145 2.0 6.0 0.00 0.00 0.00 39 1010.8
20260901233003 99 59 3.0 7.0 0.00 0.00 0.00 38 1010.8
20260901232003 98 154 2.0 8.0 0.00 0.00 0.00 39 1010.8
20260901231004 99 59 2.0 10.0 0.00 0.00 0.00 38 1010.8
20260901230003 99 199 3.0 8.0 0.00 0.00 0.00 38 1010.8
20260901225004 100 122 3.0 8.0 0.00 0.00 0.00 37 1010.8
20260901224003 99 37 3.0 7.0 0.00 0.00 0.00 37 1011.0
20260901221003 100 156 3.0 6.0 0.00 0.00 0.00 37 1011.0
20260901220003 100 126 3.0 8.0 0.00 0.00 0.00 37 1011.2
20260901215003 101 154 2.0 6.0 0.00 0.00 0.00 36 1011.2
20260901213003 99 149 2.0 6.0 0.00 0.00 0.00 37 1011.6
20260901211003 100 43 3.0 8.0 0.00 0.00 0.00 37 1011.6
20260901205004 100 103 3.0 10.0 0.00 0.00 0.00 36 1011.6
20260901204003 100 93 3.0 10.0 0.00 0.00 0.00 37 1013.1
20260901203004 99 83 3.0 9.0 0.00 0.00 0.00 37 1013.1
20260901202004 99 48 3.0 8.0 0.00 0.00 0.00 38 1013.1
20260901200004 98 129 4.0 12.0 0.00 0.00 0.00 39 1013.1
20260901195003 99 45 2.0 8.0 0.00 0.00 0.00 38 1013.1
20260901194004 98 150 4.0 10.0 0.00 0.00 0.00 39 1013.1
20260901192003 97 217 2.0 5.0 0.00 0.00 0.00 42 1013.1
20260901191003 96 42 2.0 7.0 0.00 0.00 0.00 42 1013.1
20260901190003 96 64 3.0 6.0 0.00 0.00 0.00 44 1013.1
20260901185004 96 94 4.0 8.0 0.00 0.00 0.00 43 1013.8
20260901184003 97 95 3.0 7.0 0.00 0.00 0.00 43 1013.8
20260901183003 98 162 3.0 8.0 0.00 0.00 0.00 41 1013.8
20260901182004 98 162 2.0 7.0 0.00 0.00 0.00 41 1013.8
20260901181004 98 118 6.0 9.0 0.00 0.00 0.00 40 1014.2
20260901180004 97 19 6.0 8.0 0.00 0.00 0.00 42 1014.2
20260901175003 97 159 2.0 7.0 0.00 0.00 0.00 43 1014.2
20260901174005 96 185 1.0 5.0 0.00 0.00 0.00 44 1014.4
20260901173003 97 169 4.0 8.0 0.00 0.00 0.00 44 1015.0
20260901172004 95 28 3.0 8.0 0.00 0.00 0.00 45 1015.0
20260901171003 95 15 2.0 7.0 0.00 0.00 0.00 44 1015.0
20260901170004 96 146 2.0 6.0 0.00 0.00 0.00 44 1015.0
20260901165003 96 159 2.0 6.0 0.00 0.00 0.00 45 1015.0
20260901161004 94 153 1.0 6.0 0.00 0.00 0.00 49 1015.1
20260901160004 94 186 2.0 5.0 0.00 0.00 0.00 50 1015.1
20260901155004 93 218 2.0 6.0 0.00 0.00 0.00 52 1015.0
20260901154004 91 136 1.0 7.0 0.00 0.00 0.00 54 1015.0
20260901152003 91 125 3.0 7.0 0.00 0.00 0.00 56 1015.2
20260901151003 90 165 2.0 3.0 0.00 0.00 0.00 57 1015.2
20260901150004 89 151 2.0 5.0 0.00 0.00 0.00 59 1015.2
20260901145003 87 225 3.0 6.0 0.00 0.00 0.00 61 1015.2
20260901144004 87 151 2.0 5.0 0.00 0.00 0.00 63 1015.2
20260901143004 86 192 2.0 5.0 0.00 0.00 0.00 64 1015.3
20260901142003 85 0 3.0 5.0 0.00 0.00 0.00 67 1015.1
20260901141004 84 0 1.0 6.0 0.00 0.00 0.00 69 1015.1
20260901140003 83 0 2.0 7.0 0.00 0.00 0.00 70 1015.1
20260901134004 83 0 1.0 5.0 0.00 0.00 0.00 71 1015.1
20260901133004 80 0 2.0 3.0 0.00 0.00 0.00 75 1015.1
20260901132003 79 0 0.0 2.0 0.00 0.00 0.00 76 1015.1
20260901131003 79 0 0.0 0.0 0.00 0.00 0.00 76 1015.0
20260901130003 78 0 0.0 2.0 0.00 0.00 0.00 75 1014.9
20260901125004 78 0 0.0 1.0 0.00 0.00 0.00 75 1014.7
20260901124003 78 0 0.0 1.0 0.00 0.00 0.00 74 1014.2
20260901123003 78 0 0.0 3.0 0.00 0.00 0.00 73 1014.2
20260901122003 78 0 1.0 5.0 0.00 0.00 0.00 76 1014.2
20260901121004 77 0 0.0 0.0 0.00 0.00 0.00 75 1014.2
20260901120004 78 0 0.0 0.0 0.00 0.00 0.00 74 1014.2
20260901115004 78 0 0.0 0.0 0.00 0.00 0.00 72 1014.2
20260901114004 79 0 0.0 0.0 0.00 0.00 0.00 71 1014.2
20260901113003 79 0 1.0 3.0 0.00 0.00 0.00 71 1014.1
20260901112004 79 0 0.0 0.0 0.00 0.00 0.00 71 1013.8
20260901111004 79 0 0.0 1.0 0.00 0.00 0.00 70 1013.8
20260901105003 80 0 0.0 1.0 0.00 0.00 0.00 69 1013.8
20260901104003 81 0 0.0 3.0 0.00 0.00 0.00 67 1013.8
20260901103003 81 0 0.0 3.0 0.00 0.00 0.00 66 1013.8
20260901102004 81 0 0.0 3.0 0.00 0.00 0.00 65 1013.8
20260901100003 80 0 0.0 1.0 0.00 0.00 0.00 67 1013.8
20260901095004 80 0 0.0 2.0 0.00 0.00 0.00 66 1013.8
20260901094003 80 0 0.0 3.0 0.00 0.00 0.00 65 1013.8
20260901093004 80 0 0.0 2.0 0.00 0.00 0.00 64 1013.8
20260901092004 81 0 1.0 3.0 0.00 0.00 0.00 64 1013.8
20260901090003 81 0 0.0 2.0 0.00 0.00 0.00 62 1013.7
20260901085004 82 0 1.0 3.0 0.00 0.00 0.00 62 1013.7
20260901083004 83 0 1.0 3.0 0.00 0.00 0.00 60 1013.7
20260901082004 83 0 1.0 3.0 0.00 0.00 0.00 60 1013.7
20260901081004 83 0 2.0 6.0 0.00 0.00 0.00 59 1012.5
20260901075003 84 0 0.0 6.0 0.00 0.00 0.00 57 1012.5
20260901074004 84 0 2.0 7.0 0.00 0.00 0.00 56 1012.3